Content
SEND FEEDBACK

Daily
Averages
Monthly
Summary
Canada

VICTORIA, BRITISH COLUMBIA


Home > North America > Canada > British Columbia
Elevation: 62 feet     Latitude: 48 39N     Longitude: 123 26W

WEATHER
 
SELECT A DAY
Number of Records: 198,553;   Date Range: 1/1/95 - 10/24/14
 
SHARE

PRINT THIS DATA

[ ← Previous Day ]
WEATHER ALMANAC - MARCH 26, 2013
[ Next Day → ]
[ °C ]   °F
Weather ElementAverageHighLow
Temperature47 °F56 °F (5:00 pm)37.4 °F (6:00 am)
Dewpoint36.6 °F39.2 °F (8:00 pm)33.8 °F (5:00 am)
Humidity67.2 %87 % (6:00 am)37 % (5:00 pm)
Barometer30.01 in30.04 in (11:00 am)29.99 in (6:00 pm)
Wind Speed4.7 mph6.9 mph (9:00 am)
Weather ElementAverage
Visibility29.7 mi
Wind DirectionSSE (154.4 °)

Weather ElementTotal
Precipitation---
Heating Degree Days18.3 (Base 65)
Averaged from 27 records on March 26, 2013
WEATHER CONDITIONS BREAKOUT
WIND DIRECTION BREAKOUT
WEATHER BY HOUR - MARCH 26, 2013
[ °C ]   °F
Local TimeTemperatureDewpointHumidityBarometerVisibilityWind DirectionWind SpeedGust SpeedPrecipitationEventsConditions
1:00 AM41.0 °F35.6 °F81 %30.00 in30.0 miWest (280°)4.6 mphMostly Cloudy
2:00 AM42.8 °F35.6 °F76 %30.01 in30.0 miWest (270°)3.5 mphMostly Cloudy
3:00 AM42.8 °F35.6 °F76 %30.00 in30.0 miWest (270°)5.8 mphOvercast
4:00 AM41.0 °F35.6 °F81 %30.00 in30.0 miWest (280°)5.8 mphMostly Cloudy
5:00 AM39.0 °F34.0 °F74 %30.00 in28.0 miWest (270°)4.6 mphScattered Clouds
5:00 AM39.2 °F33.8 °F81 %30.00 in30.0 miWest (270°)4.6 mphMostly Cloudy
6:00 AM37.4 °F33.8 °F87 %30.01 in30.0 miWest (280°)5.8 mphMostly Cloudy
7:00 AM37.4 °F33.8 °F87 %30.01 in30.0 miWNW (290°)4.6 mphMostly Cloudy
8:00 AM41.0 °F35.6 °F81 %30.02 in30.0 miWest (270°)5.8 mphMostly Cloudy
9:00 AM46.4 °F37.4 °F71 %30.02 in30.0 miWest (280°)6.9 mphMostly Cloudy
10:00 AM48.2 °F37.4 °F66 %30.03 in30.0 miNorth (10°)5.8 mphMostly Cloudy
11:00 AM50.0 °F37.0 °F49 %30.04 in28.0 miNNE (30°)5.8 mphMostly Cloudy
11:00 AM50.0 °F37.4 °F62 %30.04 in30.0 miNNE (30°)4.6 mphMostly Cloudy
12:00 PM51.8 °F37.4 °F58 %30.04 in30.0 miNE (50°)4.6 mphMostly Cloudy
1:00 PM50.0 °F37.4 °F62 %30.04 in30.0 miEast (90°)5.8 mphMostly Cloudy
2:00 PM53.6 °F37.4 °F54 %30.03 in30.0 miENE (60°)6.9 mphMostly Cloudy
3:00 PM55.4 °F35.6 °F47 %30.02 in30.0 miEast (90°)5.8 mphOvercast
4:00 PM55.4 °F37.4 °F51 %30.01 in30.0 miEast (80°)6.9 mphMostly Cloudy
5:00 PM56.0 °F37.0 °F37 %30.00 in28.0 miEast (100°)4.6 mphScattered Clouds
5:00 PM55.4 °F37.4 °F51 %30.00 in30.0 miEast (80°)5.8 mphMostly Cloudy
6:00 PM53.6 °F37.4 °F54 %29.99 in30.0 miEast (100°)3.5 mphOvercast
7:00 PM51.8 °F37.4 °F58 %29.99 in30.0 miESE (110°)4.6 mphMostly Cloudy
8:00 PM50.0 °F39.2 °F66 %29.99 in30.0 miEast (80°)4.6 mphMostly Cloudy
9:00 PM48.2 °F39.2 °F71 %30.00 in30.0 miCalmMostly Cloudy
10:00 PM44.6 °F39.2 °F81 %30.00 in30.0 miCalmMostly Cloudy
11:00 PM43.0 °F37.0 °F72 %30.00 in28.0 miWest (260°)2.3 mphMostly Cloudy
11:00 PM42.8 °F37.4 °F81 %30.00 in30.0 miWSW (240°)2.3 mphMostly Cloudy
Hourly data recorded from CYYJ, located miles away from Victoria, British Columbia







STORIES FROM OUR PARTNERS